GFSSGP_250_spd_129.txt.gz
Wind_Speed
63 61 63 60 55 59 58 57 56 58 62 65 68 68 69 66 63 59 59 60 60 55 57 52 51 47 44 40 37 35 36 35 35 34 34 33 33 31 31 30 30 29 29 28 28 25 25 22 23
55 45 43 44 45 45 47 47 50 53 58 64 66 67 68 73 69 65 63 63 63 61 58 59 55 52 49 45 42 40 37 36 35 33 33 33 35 34 34 33 32 32 29 27 24 22 21 22 24
35 36 40 43 47 49 54 55 53 55 58 58 60 68 68 71 76 71 70 67 66 66 61 61 60 56 54 50 48 45 41 39 38 37 35 35 34 34 33 34 34 33 28 24 22 21 21 22 25
38 40 40 41 43 45 49 50 51 55 60 63 64 65 67 73 77 75 77 74 70 69 66 62 62 59 57 55 53 49 46 45 43 41 40 39 40 38 36 34 34 32 29 26 26 24 24 28 29
32 30 31 37 41 44 46 50 52 57 61 62 66 69 70 68 72 79 75 79 75 71 72 68 63 62 59 58 56 56 52 49 48 48 47 45 44 42 39 37 35 32 31 29 28 27 28 31 30
25 28 31 34 37 38 42 46 51 56 61 66 69 70 74 75 74 71 79 77 78 75 73 72 68 66 62 59 58 58 57 54 52 52 52 49 48 44 40 38 38 37 34 33 33 30 31 34 33
26 26 29 34 38 41 46 47 53 56 60 66 74 76 74 73 78 79 76 80 77 78 76 72 68 67 65 62 59 59 61 59 56 55 55 52 51 47 42 40 38 38 39 39 37 36 37 38 39
22 25 31 37 43 47 51 50 54 55 57 62 67 75 78 77 77 81 83 80 80 79 76 69 69 66 68 67 65 62 60 62 60 59 58 56 55 51 47 44 43 44 46 46 44 43 42 42 43
22 27 32 39 45 50 51 54 50 48 50 53 58 66 72 77 79 80 85 82 79 79 77 70 63 67 65 66 67 69 65 65 64 63 62 61 59 55 52 49 49 49 50 51 48 47 45 46 47
25 29 33 39 44 52 56 58 53 44 45 51 57 60 65 69 75 80 82 88 77 76 76 59 66 59 58 62 60 65 67 72 70 68 68 67 63 60 57 55 53 53 52 53 51 50 49 49 46
25 29 34 40 46 54 59 62 54 48 45 46 51 57 59 63 68 76 80 84 85 77 77 63 64 63 51 67 61 56 58 73 74 72 73 72 69 65 61 58 55 54 54 55 53 52 51 48 47
25 30 35 40 48 54 59 63 55 46 44 38 36 43 48 57 63 69 77 82 79 82 82 73 54 49 48 67 52 67 64 60 70 79 73 73 72 70 66 62 59 57 56 59 56 53 51 52 50
25 30 36 43 49 55 60 64 58 50 39 31 28 31 36 45 50 60 71 78 78 86 82 71 61 67 71 59 56 58 66 63 61 63 76 75 74 73 70 67 64 62 61 59 58 57 55 55 54
25 32 37 44 49 56 60 65 60 50 39 27 25 26 30 37 44 52 69 75 78 84 85 76 74 59 53 68 63 57 58 66 63 61 60 68 77 73 72 71 68 67 65 64 62 60 59 58 57
25 31 36 44 50 58 63 64 63 55 41 27 24 21 26 32 39 49 66 74 79 84 85 81 71 59 76 76 58 54 61 62 62 61 56 63 66 76 72 73 73 71 70 68 67 66 65 63 62
25 32 36 44 51 58 62 67 65 56 46 32 26 23 19 29 36 50 64 78 84 83 94 83 76 71 54 55 54 53 56 55 55 58 54 57 63 63 67 72 71 69 68 68 66 65 65 63 64
24 29 36 42 47 53 59 67 70 60 52 42 31 22 18 25 35 49 65 81 86 85 97 82 84 78 60 55 48 55 54 51 59 54 58 62 55 56 58 65 67 66 67 68 66 66 65 65 63
23 28 34 40 46 52 59 65 70 66 52 36 35 25 18 23 33 49 67 88 91 86 99 84 84 78 69 64 63 62 51 49 47 54 59 59 62 62 59 56 63 67 68 69 69 67 66 65 65
25 31 35 39 46 51 57 64 70 72 62 50 39 30 18 23 33 47 67 91 91 88 95 90 86 79 73 74 69 66 65 49 46 46 51 53 51 53 59 58 60 63 68 71 73 72 70 69 68
28 31 35 37 43 50 55 62 68 74 72 60 42 36 24 20 32 43 66 91 98 98 98 94 87 85 78 73 71 68 59 58 55 53 48 53 51 52 53 53 55 52 52 56 60 62 61 60 63
30 31 34 36 40 47 53 60 66 71 74 65 49 35 27 16 29 39 64 92 101 104 102 102 93 94 81 75 79 67 57 53 57 51 47 56 51 53 56 52 49 51 56 54 53 57 57 58 58
26 29 32 35 39 44 50 57 65 69 74 71 59 39 25 12 22 31 59 84 97 104 111 103 102 96 97 86 79 74 65 50 53 57 44 50 55 54 52 45 48 49 53 56 59 62 61 62 61
22 26 29 33 37 41 47 53 60 68 72 77 68 50 27 8 16 28 51 76 99 108 107 109 97 97 96 86 89 78 68 62 57 54 60 47 53 53 58 53 54 53 51 54 57 60 61 65 68
20 22 25 31 36 40 45 50 55 62 67 72 73 62 42 20 2 21 41 67 95 107 107 105 98 99 99 90 86 86 77 68 65 63 62 63 63 59 57 61 61 54 55 57 60 62 63 65 65
18 19 21 28 34 38 43 46 50 56 64 68 71 70 56 34 18 11 27 50 80 101 114 108 108 97 97 96 94 93 88 76 67 68 61 56 54 57 56 59 64 65 60 58 62 63 66 66 67
14 17 18 23 29 34 38 42 46 52 57 63 67 69 66 50 26 6 20 33 63 93 104 119 112 118 104 105 101 102 92 87 83 72 76 68 62 60 58 57 62 62 57 63 62 64 64 66 69
13 17 15 18 26 32 36 39 42 47 51 57 61 64 65 61 49 22 8 26 49 71 102 115 119 115 115 103 104 103 101 89 85 78 73 65 63 65 62 64 64 61 59 62 63 64 63 65 68
15 17 16 16 22 29 33 36 37 40 44 50 54 59 61 62 59 47 30 5 24 48 87 107 122 119 112 115 107 104 105 98 92 82 70 67 66 63 66 67 69 65 65 63 66 65 67 70 74
23 16 17 16 17 23 30 32 35 37 38 42 48 52 54 56 58 58 46 31 10 11 39 75 110 126 116 114 107 107 109 105 95 91 79 77 81 75 74 74 74 72 74 70 70 72 69 74 75
32 26 18 20 16 19 26 29 32 35 37 36 40 45 48 50 52 53 55 47 33 15 4 26 45 75 103 125 127 121 120 112 102 93 91 84 82 81 84 85 87 84 84 81 78 76 80 78 73

GFSSGP_250_spd_132.txt.gz
Wind_Speed
67 69 67 75 59 56 53 52 49 48 53 54 58 60 61 61 62 63 61 61 58 57 57 58 55 52 54 51 47 47 44 43 40 38 37 35 33 31 30 31 30 29 27 27 26 26 26 24 23
68 67 53 46 37 37 38 39 39 42 44 48 54 59 60 63 67 67 66 65 63 61 59 62 60 56 54 55 49 47 44 43 40 37 35 36 33 32 30 30 32 31 30 30 27 26 25 20 19
53 35 34 35 37 40 41 42 45 49 49 51 52 55 58 65 68 74 72 71 67 67 64 62 63 61 55 57 54 50 46 44 40 37 35 35 34 33 31 30 30 31 30 30 27 25 21 19 19
38 37 37 38 37 35 36 36 38 41 42 47 51 55 61 62 62 72 75 78 77 74 70 67 64 64 60 57 58 53 50 46 44 41 39 37 36 35 34 32 32 30 29 30 27 26 24 22 23
36 36 28 29 30 30 32 35 37 42 42 45 50 54 59 64 68 69 69 77 76 81 77 72 68 67 65 60 60 58 56 52 49 46 43 42 40 40 39 38 37 34 33 31 28 28 26 24 24
31 26 27 27 27 30 32 35 39 44 47 49 54 57 61 66 70 73 74 71 77 79 79 77 73 69 67 64 61 63 59 57 55 52 48 46 45 45 45 45 43 39 38 36 31 31 28 26 27
27 26 25 27 29 30 32 34 39 45 48 52 58 60 63 68 74 76 77 77 75 81 81 79 77 73 68 66 62 62 63 60 59 56 54 51 49 48 48 48 47 45 42 40 35 36 31 29 30
23 23 25 28 30 32 33 36 42 46 50 56 59 61 63 66 73 79 81 81 80 76 81 82 80 80 73 66 63 60 64 62 61 59 57 55 53 50 49 50 49 46 44 43 41 38 35 35 35
20 22 25 27 31 33 34 39 44 49 55 57 57 56 60 63 66 75 80 83 81 80 78 85 81 81 77 71 62 59 57 62 63 61 59 57 56 52 52 53 52 51 48 47 45 44 43 43 40
20 22 23 26 32 37 39 45 51 54 57 58 55 55 57 61 64 69 75 82 83 81 81 80 81 77 71 67 61 57 53 53 60 66 61 59 58 59 56 55 56 56 51 52 51 50 48 47 45
20 21 22 27 33 37 42 47 53 59 62 55 52 51 51 56 61 66 71 75 79 82 83 74 79 80 75 65 62 52 59 55 58 58 62 66 62 61 60 60 59 61 56 55 55 54 53 52 50
20 19 22 26 33 37 43 49 55 60 63 57 48 41 41 47 53 58 68 72 74 82 84 83 77 80 80 69 63 45 56 70 58 56 56 55 62 67 66 64 65 65 62 59 56 55 53 53 52
17 20 23 27 32 37 42 50 56 63 66 53 44 34 34 34 40 49 58 70 74 75 84 81 82 82 76 73 66 60 45 64 71 63 58 51 52 59 69 66 68 69 67 64 60 57 56 55 54
17 21 24 29 34 39 44 51 57 64 68 55 41 29 32 28 32 40 50 60 70 70 74 81 83 84 79 74 59 60 52 75 65 64 62 55 56 54 54 65 67 68 69 66 63 61 60 57 56
16 20 24 30 36 41 47 53 59 63 67 61 52 30 27 28 28 35 42 51 62 69 70 80 81 83 75 60 62 58 55 68 66 64 62 61 59 56 56 56 61 68 67 66 67 66 64 61 60
13 17 23 29 35 43 50 55 62 66 71 64 51 40 24 24 27 31 39 46 57 67 73 79 81 84 76 67 67 63 50 52 66 64 53 51 54 57 60 58 58 57 60 66 64 64 65 63 62
12 19 26 30 36 41 49 56 62 66 70 70 54 38 36 22 25 29 35 45 56 67 72 81 83 83 85 74 71 71 59 70 59 58 58 55 59 62 59 52 56 52 54 55 60 62 61 60 60
14 19 26 30 34 39 47 53 58 64 70 73 60 43 32 28 23 28 34 46 55 65 72 79 81 87 87 85 78 68 72 66 58 62 64 62 61 64 63 64 64 59 56 54 53 56 58 56 55
14 20 26 32 36 39 44 51 57 62 69 74 70 51 38 26 21 28 33 47 54 65 72 80 83 87 90 78 83 71 65 68 63 54 53 54 59 56 57 58 61 64 60 53 54 53 56 56 58
14 18 26 32 36 41 45 49 56 60 67 72 73 57 42 35 19 25 32 46 53 66 74 80 86 88 83 82 75 66 62 61 63 61 63 61 61 64 59 54 52 52 57 58 57 57 59 58 61
19 19 20 28 34 39 46 49 55 61 65 71 73 58 40 31 19 19 31 43 54 68 74 77 84 83 84 80 67 65 65 67 62 61 58 54 54 53 54 54 51 49 52 52 54 51 52 54 54
18 17 18 25 32 37 44 49 52 59 64 71 75 71 50 32 19 12 28 41 56 68 72 79 87 86 78 79 71 70 71 71 65 69 60 53 51 53 51 51 49 46 46 48 48 48 49 51 51
20 19 16 21 29 35 41 47 50 55 63 68 73 76 60 35 19 5 20 37 52 69 76 84 91 88 85 89 74 74 77 76 75 67 60 55 45 60 64 58 52 52 49 51 51 49 48 50 52
18 23 15 18 26 31 38 45 50 51 56 63 68 72 69 44 25 7 9 30 48 68 75 85 94 90 81 84 74 77 81 80 77 74 66 58 58 53 46 49 59 58 54 53 56 51 52 51 54
21 21 15 16 22 30 34 41 47 50 50 57 64 67 70 58 34 15 3 24 47 68 74 80 92 98 94 84 80 80 83 80 76 70 64 54 49 46 49 54 48 46 57 61 59 60 62 61 65
23 22 16 16 19 28 30 37 43 48 48 51 57 62 66 65 49 27 7 11 40 67 76 78 83 96 96 93 82 79 77 81 75 74 71 66 64 59 58 54 56 57 57 53 57 60 65 67 60
28 22 18 16 16 23 29 32 39 44 46 45 49 55 57 60 59 41 19 2 25 62 81 79 87 94 96 92 93 86 82 81 82 80 70 72 78 72 69 65 65 65 62 57 59 60 57 62 66
30 22 19 17 18 20 27 29 34 40 43 42 43 47 51 53 54 54 38 18 4 32 77 84 92 96 95 96 96 93 88 84 83 82 81 70 68 67 70 69 64 60 58 57 61 60 62 62 61
34 28 27 23 20 22 25 28 30 34 39 39 39 41 44 47 48 48 49 43 20 2 36 84 93 97 99 98 97 98 93 88 86 78 86 84 76 76 78 78 72 77 69 67 70 69 67 65 69
37 34 31 28 25 24 25 24 26 28 31 35 36 37 39 42 43 45 44 43 41 30 5 26 77 92 97 92 93 98 94 92 86 81 81 82 84 88 86 79 77 73 80 72 80 78 73 78 84

GFSSGP_250_spd_135.txt.gz
Wind_Speed
51 54 60 61 64 63 55 46 47 50 50 52 52 53 54 55 56 59 61 63 63 64 62 58 57 54 54 51 51 50 50 48 46 46 44 43 41 39 35 33 31 29 28 26 26 24 23 23 25
48 51 57 60 61 52 40 36 38 39 39 40 41 43 45 49 56 60 63 65 67 68 68 64 61 60 58 57 54 54 52 51 49 47 45 44 42 38 35 32 30 28 27 27 27 27 25 23 24
56 51 55 60 47 40 38 39 43 42 39 40 42 45 47 47 49 62 65 66 69 70 71 70 67 63 63 62 60 56 55 54 51 48 46 44 43 39 38 34 30 28 26 27 28 26 26 24 21
57 54 57 52 36 39 40 37 32 31 32 35 37 39 43 48 54 57 61 70 74 73 73 73 70 67 64 65 63 62 57 57 54 50 47 46 43 39 37 34 31 28 27 26 25 25 23 24 22
54 55 52 36 33 33 28 28 31 33 33 36 39 42 45 48 53 57 62 65 70 77 77 75 74 70 70 67 66 65 61 59 58 54 50 47 44 42 39 37 35 31 30 30 30 29 25 25 26
50 39 34 30 28 26 26 30 34 35 38 39 43 46 50 54 59 62 64 66 70 72 79 80 78 76 71 68 66 65 65 59 60 58 53 50 47 44 42 40 38 35 33 33 32 32 29 26 27
33 30 30 27 21 24 27 31 34 38 39 41 44 48 54 59 64 66 67 70 68 74 74 81 84 80 77 70 67 66 65 62 60 60 57 54 51 48 45 44 41 38 39 37 36 36 35 31 30
29 28 25 21 21 24 28 30 34 34 36 42 47 51 55 60 65 69 70 71 75 73 78 77 81 85 82 76 70 63 64 64 60 60 61 59 55 52 50 48 45 43 41 40 40 40 37 36 34
26 23 20 21 22 25 28 29 28 32 39 45 51 55 59 60 63 67 70 72 75 79 78 82 82 80 88 83 74 68 61 60 62 59 58 61 59 56 54 51 48 46 43 41 40 40 40 39 39
21 17 20 22 24 25 28 28 30 35 41 48 55 59 60 59 58 61 65 69 70 77 81 81 84 81 81 85 73 57 57 57 54 57 59 59 59 60 57 54 52 48 46 44 44 43 43 42 44
15 18 21 22 25 27 29 29 34 38 44 51 57 60 56 56 54 52 57 62 66 70 79 84 84 85 82 81 79 72 54 63 59 50 49 51 54 59 57 56 52 48 51 50 48 48 46 46 45
16 18 20 22 24 27 29 32 36 40 47 54 61 64 56 45 47 43 46 54 62 64 71 83 86 87 85 84 84 78 61 62 61 53 59 57 52 51 51 60 56 53 55 56 54 49 50 50 49
17 18 19 22 24 28 32 35 39 43 47 55 63 69 59 50 37 39 39 44 53 60 66 76 84 88 86 84 87 82 83 80 63 51 50 55 55 52 51 51 53 56 59 59 58 58 55 55 54
17 18 19 19 25 28 33 37 41 46 51 56 61 67 62 53 38 37 38 39 46 54 63 72 81 89 92 87 86 83 80 76 73 67 64 56 61 59 54 53 52 46 43 46 52 56 59 58 57
18 16 14 18 25 28 33 39 43 50 54 59 60 65 63 53 45 33 36 36 43 51 61 70 78 87 91 89 85 86 78 67 65 62 49 49 52 56 56 57 55 44 41 46 47 48 53 54 57
18 15 16 20 25 31 37 43 45 51 58 63 67 71 69 54 43 35 35 38 39 50 59 67 73 80 88 86 86 86 79 65 61 52 53 57 55 55 58 58 56 52 44 45 51 53 51 50 52
15 13 17 19 27 32 38 45 47 52 59 66 69 72 73 57 38 36 35 40 41 47 58 65 68 75 85 86 81 83 78 70 63 56 62 59 54 61 62 59 59 57 52 44 51 49 51 55 52
14 10 14 18 28 33 38 45 49 53 57 65 70 74 77 61 38 31 38 40 40 44 55 61 67 73 84 86 81 80 80 72 69 68 64 60 60 56 56 59 59 54 54 55 51 47 53 53 51
15 13 18 24 29 33 38 44 49 54 55 61 68 74 78 61 43 30 34 35 36 41 50 58 65 72 83 84 83 74 80 70 64 60 58 59 54 54 62 54 54 54 56 55 59 60 58 53 56
20 20 21 24 24 33 35 41 48 54 57 60 67 73 76 56 42 29 22 26 27 34 46 54 60 69 77 82 75 78 76 71 63 59 59 56 52 49 56 55 56 58 60 59 60 61 62 59 57
27 26 20 19 22 32 35 41 48 53 58 60 64 71 76 58 41 23 12 11 18 30 41 48 57 66 75 77 74 76 75 73 62 59 63 60 66 65 61 61 60 57 59 56 58 58 57 56 54
25 28 25 18 21 28 34 38 47 51 56 58 63 71 76 67 44 23 12 5 10 25 35 46 58 68 73 75 74 74 76 75 75 66 65 58 65 62 62 59 58 56 58 58 55 53 53 51 54
26 26 26 28 20 23 32 38 43 50 54 57 62 67 71 72 50 31 22 10 5 19 34 47 59 64 73 77 80 84 80 79 80 70 69 65 65 62 55 59 62 61 61 59 55 53 50 50 50
26 23 19 17 18 21 27 34 39 46 51 54 58 62 67 71 58 39 27 15 2 17 33 48 59 70 77 82 85 87 83 83 81 72 69 68 67 62 59 54 53 54 49 49 54 52 49 46 50
28 25 20 17 19 18 23 29 37 42 47 51 54 58 61 64 65 47 35 21 5 13 29 47 61 72 85 84 82 82 85 76 76 75 72 72 69 69 67 61 57 53 52 55 53 53 49 50 56
31 27 21 20 21 19 20 25 33 38 43 46 49 52 56 59 61 59 43 27 13 7 25 43 59 74 85 87 84 80 81 76 73 75 72 69 71 69 61 66 70 68 66 71 67 72 68 70 65
32 32 27 25 20 19 20 23 30 33 38 41 44 47 51 55 55 56 53 41 24 7 18 38 54 71 79 89 88 80 77 78 77 72 68 63 66 70 72 69 68 63 51 53 49 52 59 60 61
35 33 31 30 25 24 20 24 25 28 32 37 39 42 44 49 52 51 50 47 36 15 9 25 47 63 75 85 82 79 78 76 70 69 69 71 71 73 70 72 66 69 68 64 67 65 62 63 66
39 35 34 31 27 27 25 23 23 26 27 30 34 37 41 42 47 49 49 44 43 31 15 12 33 54 71 86 78 73 75 68 69 67 66 61 64 66 65 60 61 64 65 65 68 66 68 70 69
42 39 37 33 29 26 27 24 26 22 24 24 29 32 34 38 41 44 47 46 43 40 28 13 14 42 57 81 81 80 72 70 68 74 75 75 74 67 71 68 71 68 69 67 70 74 75 82 87

GFSSGP_250_spd_141.txt.gz
Wind_Speed
51 55 54 54 49 46 50 53 53 54 54 49 49 51 54 53 54 56 61 62 62 64 66 63 66 64 57 58 60 57 56 53 51 51 50 48 47 44 41 40 38 36 35 34 34 32 31 27 25
55 54 52 50 46 48 55 57 57 54 58 58 54 51 46 42 41 44 49 55 59 60 62 64 69 69 66 62 62 60 60 58 56 55 54 51 50 48 46 43 41 38 36 36 34 33 32 29 26
53 50 51 53 55 56 53 52 50 50 53 54 52 44 45 45 46 47 47 48 52 59 63 63 72 72 72 70 68 66 63 63 58 58 56 55 53 51 49 47 44 41 39 37 36 34 31 29 26
51 53 56 47 51 56 47 45 45 44 46 44 42 42 40 40 41 42 46 50 53 54 58 65 67 75 74 74 74 73 69 65 63 61 59 57 56 55 52 50 47 43 41 39 37 36 32 29 25
53 55 56 55 46 42 44 45 42 38 36 36 37 37 37 39 41 43 46 49 51 53 57 59 66 73 76 77 77 77 75 72 67 65 62 59 58 57 55 52 51 46 42 40 40 38 33 29 24
53 51 51 44 45 42 44 43 39 35 36 37 36 37 37 40 43 46 50 52 55 57 58 60 62 66 74 79 80 79 78 77 73 67 65 62 59 59 57 54 52 48 46 42 41 41 35 30 27
51 47 42 33 38 41 40 39 36 33 35 34 34 37 37 42 44 48 52 55 59 63 64 65 64 64 68 77 79 80 80 79 75 71 66 63 62 59 57 57 55 52 48 45 42 41 37 33 27
44 39 37 36 44 39 36 35 32 32 32 31 35 37 38 41 46 51 54 57 61 66 68 70 71 71 68 69 77 77 78 77 76 70 68 64 62 61 58 57 56 54 51 48 45 43 39 34 31
42 40 42 46 37 34 33 31 29 30 30 33 36 38 40 43 47 50 54 57 61 64 66 71 72 77 74 72 70 78 75 72 73 70 63 62 62 62 61 61 58 55 53 51 49 46 42 38 35
40 46 44 43 36 32 29 28 27 28 29 32 36 40 44 48 52 56 57 59 61 62 64 70 70 72 78 77 73 72 85 70 63 64 54 55 58 60 60 60 60 58 55 53 52 49 45 42 37
48 45 48 38 31 29 27 26 25 28 30 33 36 41 46 50 55 59 62 65 65 62 64 64 67 66 75 79 79 74 76 76 61 45 42 41 48 53 59 60 60 57 56 54 52 51 48 45 41
46 42 34 31 28 27 25 24 26 27 31 32 38 41 46 52 59 60 65 68 71 70 62 56 64 64 72 82 83 83 70 81 76 64 48 43 43 49 53 54 59 58 56 53 54 54 50 47 44
36 32 30 28 28 25 24 25 25 27 31 36 39 45 50 56 61 64 67 68 73 75 65 52 56 61 72 83 87 86 83 79 84 72 55 57 51 55 45 52 53 54 56 52 53 56 53 50 47
29 29 29 28 26 24 25 23 24 28 32 35 40 48 54 61 65 68 70 72 75 71 63 49 49 57 67 83 89 87 82 83 87 80 69 65 50 54 48 46 49 52 48 45 50 48 56 54 53
29 28 29 28 25 25 24 20 25 28 34 37 45 51 59 64 67 71 74 80 75 62 55 43 42 51 63 77 88 94 89 84 89 88 81 59 65 61 48 50 48 49 53 47 45 40 46 49 53
29 29 30 28 26 26 23 20 27 30 33 39 46 53 60 64 67 73 74 77 67 55 46 37 38 48 58 70 83 95 92 86 90 93 90 72 62 68 61 45 49 51 48 50 51 46 44 45 39
30 30 30 28 28 26 23 25 28 27 32 40 46 54 62 63 69 73 75 67 57 47 38 31 35 45 54 63 79 90 96 94 92 97 95 85 64 72 66 60 56 55 52 50 53 53 48 47 45
32 31 31 28 29 24 25 26 27 28 33 39 46 56 62 64 70 73 71 58 47 37 32 26 33 40 49 57 72 83 94 97 95 96 93 72 68 70 70 70 65 57 57 55 53 53 55 54 53
32 31 30 28 27 26 26 27 25 27 32 39 46 56 61 65 70 71 66 51 39 28 22 19 29 37 46 55 66 79 88 95 97 95 102 72 67 69 66 64 63 63 61 56 58 52 54 54 55
33 32 30 28 27 30 24 22 26 28 32 40 45 53 59 64 69 70 62 44 32 24 16 18 26 34 43 50 61 75 85 92 96 94 98 101 69 69 67 66 57 59 64 58 57 53 51 51 53
34 33 32 30 29 29 28 34 24 28 30 37 43 51 57 62 67 68 58 38 28 19 13 18 22 28 35 42 55 69 80 85 90 90 93 94 85 70 68 63 57 52 57 55 55 53 50 51 52
37 33 32 32 32 31 32 30 27 28 28 35 40 48 54 59 65 66 57 39 28 14 7 14 19 23 29 37 45 57 67 74 82 87 88 93 84 69 66 62 60 55 54 57 57 55 52 51 54
39 35 34 31 31 32 27 22 20 25 26 32 37 45 51 56 61 64 60 41 31 19 7 2 8 15 19 25 34 47 58 67 73 77 84 84 86 72 72 60 55 56 57 61 58 57 53 53 56
41 38 35 33 31 31 27 22 20 25 25 29 34 41 47 54 58 59 60 47 36 24 15 7 7 13 17 21 32 41 54 64 74 75 80 78 88 73 69 62 60 58 56 58 61 58 58 57 58
42 41 37 35 34 33 30 25 22 22 22 27 32 38 43 49 55 55 58 56 39 28 18 10 6 12 21 30 34 43 49 59 72 74 78 81 88 79 66 65 61 60 64 64 61 60 59 56 54
40 44 41 37 35 34 32 25 20 21 23 26 30 36 39 44 50 51 54 56 50 32 18 12 6 11 26 35 38 45 51 55 70 70 76 81 82 73 71 64 60 60 62 61 62 60 59 59 58
38 45 45 41 38 36 35 30 26 22 26 26 28 33 35 38 45 48 50 52 53 43 23 9 4 8 27 42 44 50 56 51 67 68 78 76 82 78 76 66 64 66 61 56 60 61 63 61 61
40 44 47 45 41 39 36 34 31 28 28 29 27 29 33 34 38 43 46 48 50 50 34 12 1 10 23 37 42 47 54 62 69 73 75 71 78 73 65 65 64 65 64 66 61 62 62 62 61
54 43 46 48 45 41 39 37 33 30 28 27 25 24 28 29 31 37 42 45 45 47 48 26 4 6 18 32 38 46 56 64 66 64 66 68 72 67 66 65 63 60 62 62 59 63 65 68 65
58 50 46 50 51 46 41 39 33 28 26 27 25 21 24 25 27 29 36 41 42 42 43 43 17 2 13 23 32 42 53 60 57 58 62 67 71 74 73 63 60 63 59 60 58 62 61 66 70

GFSSGP_250_spd_144.txt.gz
Wind_Speed
53 51 52 50 51 50 50 48 46 45 47 48 55 55 53 53 53 48 52 55 63 64 65 69 66 64 61 60 60 58 54 53 54 53 50 48 46 45 43 42 39 36 34 34 32 31 31 31 30
51 49 49 47 50 52 52 47 44 47 53 56 56 57 58 57 56 59 57 51 51 57 64 71 73 72 69 66 65 63 60 56 56 57 54 51 50 48 47 46 43 39 36 36 35 35 34 32 30
51 51 46 51 51 53 46 52 56 53 54 59 50 50 52 48 50 52 49 48 47 48 51 60 68 72 73 74 70 68 67 61 61 60 58 56 53 52 50 49 47 44 41 38 37 38 36 34 31
49 44 45 50 50 52 55 52 51 59 49 46 49 47 47 43 45 44 45 44 42 42 45 49 52 62 69 74 75 75 75 69 64 64 62 61 58 56 53 52 50 48 46 42 40 39 37 37 34
49 50 48 50 54 55 50 53 58 49 44 44 47 42 38 41 39 37 38 39 39 38 42 41 44 50 56 67 74 77 79 77 71 67 66 64 61 60 58 55 54 51 49 46 44 42 39 38 36
40 41 47 50 54 57 51 49 52 44 44 44 42 39 33 44 34 36 39 42 43 44 47 48 49 50 49 53 61 73 80 80 76 73 70 69 66 63 61 59 57 55 52 49 47 45 42 40 38
43 51 53 47 44 47 49 47 43 43 42 39 37 36 28 42 33 39 40 42 45 47 46 53 53 55 56 57 56 58 74 81 81 79 76 74 71 67 64 62 60 57 55 53 50 47 44 42 40
43 46 47 50 48 50 46 43 40 43 36 34 34 32 30 36 38 38 43 45 49 52 48 54 58 60 61 63 62 59 59 72 79 81 77 78 76 72 68 66 63 61 58 56 53 49 46 44 42
46 45 46 50 47 40 43 42 43 40 32 31 33 31 34 34 37 42 44 48 53 55 54 57 60 65 66 67 68 65 59 60 68 78 78 73 77 75 69 68 67 63 60 58 55 51 48 46 44
41 47 49 43 38 44 46 49 45 34 31 31 30 31 30 31 35 39 44 48 54 54 55 59 64 66 67 66 65 69 63 57 55 64 68 75 70 70 70 67 66 64 62 58 55 53 50 47 46
45 42 44 44 46 42 47 45 37 31 30 30 28 26 31 32 38 45 49 50 56 57 60 62 65 68 67 69 69 62 68 57 57 62 50 61 66 64 68 63 65 64 63 60 59 55 52 50 48
45 47 44 45 46 50 38 36 32 32 31 29 27 30 31 36 43 52 54 58 62 66 67 69 65 63 67 69 71 66 63 61 72 68 74 65 61 56 58 56 57 59 59 60 57 57 55 51 48
44 47 48 45 45 35 33 32 33 32 29 27 26 28 34 40 48 53 59 65 69 72 72 72 68 69 67 70 72 73 72 72 77 76 76 66 60 55 59 60 56 59 59 60 58 57 54 53 51
44 40 39 40 32 31 32 32 33 32 26 24 27 29 37 42 51 57 65 69 74 77 76 76 75 66 57 57 64 71 75 80 84 75 73 71 59 54 56 56 55 56 55 59 52 55 54 50 51
30 31 31 30 31 31 31 33 31 32 26 25 28 34 38 47 54 60 67 72 78 83 80 77 72 57 50 53 63 65 79 86 91 88 78 83 67 61 58 52 52 50 51 53 57 49 53 54 50
31 32 31 28 31 29 32 32 31 33 27 25 30 35 40 48 57 65 71 75 82 86 82 69 58 52 47 49 57 66 79 91 88 89 83 88 77 66 57 62 49 54 51 54 54 52 47 43 46
29 31 28 30 31 29 31 32 30 33 29 28 32 34 41 49 56 63 70 76 82 81 71 55 47 45 43 48 53 68 80 86 88 90 84 90 86 74 65 63 63 55 50 53 52 51 51 48 48
29 31 29 31 30 31 31 33 32 32 34 34 35 37 43 49 58 66 73 78 84 71 54 43 39 40 38 45 51 67 80 91 85 93 89 91 88 81 71 63 59 52 48 49 52 47 46 48 48
29 33 32 32 32 32 30 31 33 33 33 37 41 34 43 50 57 66 73 79 80 65 47 31 29 30 34 42 50 62 78 91 92 90 94 89 92 86 71 64 58 51 47 47 45 46 48 48 50
27 32 34 33 33 32 31 31 29 30 32 32 33 34 42 48 56 64 71 78 75 61 43 27 21 25 33 40 50 61 70 86 94 90 94 93 94 85 74 68 64 60 58 54 49 49 50 51 50
24 30 35 35 32 32 30 33 34 31 34 32 30 33 40 45 54 62 70 75 72 55 41 26 20 20 25 32 45 59 65 81 90 96 91 90 93 80 72 68 67 61 63 55 54 55 55 55 55
24 26 34 34 34 32 33 32 30 32 27 27 30 31 38 44 52 60 66 70 70 52 37 23 15 14 24 30 45 53 60 72 86 94 92 84 92 89 82 71 64 60 62 52 57 57 59 58 56
27 26 30 35 35 35 37 33 34 32 27 28 27 30 36 41 49 57 63 66 69 54 35 23 8 8 20 23 34 44 49 64 78 86 93 90 92 97 75 79 67 64 54 57 51 53 51 59 61
33 27 29 35 36 38 36 31 32 32 28 27 28 30 35 40 45 53 60 62 65 57 36 22 12 4 11 20 30 37 47 55 69 77 83 90 89 103 78 75 69 58 53 53 52 54 53 56 57
40 32 28 34 36 39 40 33 30 31 31 30 28 28 34 40 42 48 56 59 61 61 41 24 12 4 7 15 24 32 35 43 56 69 77 90 89 91 99 71 68 51 57 54 54 60 60 57 57
39 40 35 30 34 38 42 38 33 31 32 31 29 27 33 38 39 42 51 56 57 59 48 30 14 3 7 14 16 19 26 34 46 59 72 84 90 96 98 82 69 62 56 54 56 58 60 59 57
43 41 44 33 33 38 44 41 36 33 34 34 31 30 32 34 35 39 43 52 53 55 55 31 16 5 4 15 21 24 29 35 39 50 60 71 81 87 92 95 85 71 65 55 62 57 59 60 58
48 45 45 45 37 38 44 44 38 34 35 34 32 30 30 30 34 36 37 45 49 51 52 41 19 9 2 10 20 26 29 33 36 43 54 62 73 82 82 85 86 75 70 76 70 67 59 57 57
55 45 49 47 44 38 44 43 42 37 35 34 32 30 27 28 31 32 33 37 44 46 47 47 27 9 4 7 14 20 28 33 34 41 49 61 68 76 81 78 83 84 84 80 67 63 62 61 63
58 53 47 45 47 44 38 45 45 39 35 32 30 25 25 26 28 28 31 31 38 43 42 43 43 21 5 8 10 13 18 25 35 46 47 49 59 64 71 73 73 81 83 80 73 65 62 63 62

GFSSGP_250_spd_150.txt.gz
Wind_Speed
57 58 57 55 53 50 48 50 46 45 44 42 42 38 39 39 39 41 43 44 45 48 50 49 55 60 63 63 65 66 64 63 61 58 57 54 54 52 49 47 43 41 39 41 39 37 34 31 30
60 59 55 53 52 49 44 44 44 47 42 45 37 39 42 41 39 42 44 48 53 52 46 50 56 56 62 64 67 69 67 68 64 64 59 58 55 55 53 50 49 46 43 43 41 40 36 34 32
51 55 54 55 55 50 48 45 44 45 46 45 38 39 44 43 43 43 50 52 50 45 44 45 45 53 58 58 61 65 71 73 72 67 64 60 60 56 55 54 50 49 48 46 44 42 40 36 35
57 53 52 55 51 51 40 41 43 43 46 45 39 43 50 48 46 48 53 56 49 46 43 40 40 43 50 58 63 65 65 69 75 75 70 64 62 59 57 55 56 53 51 50 47 44 43 39 37
54 61 50 51 46 48 48 46 42 39 43 45 42 48 52 50 52 53 52 52 47 41 37 33 33 36 38 42 46 52 59 63 70 78 78 74 70 67 63 61 58 56 55 52 50 48 44 44 44
54 49 53 55 54 51 53 49 44 42 43 42 44 49 51 51 49 48 52 45 41 35 31 28 28 31 32 34 38 40 41 47 55 63 73 79 78 74 70 65 63 59 58 55 53 51 49 47 46
35 42 41 38 40 38 46 49 49 44 45 45 45 43 48 46 45 43 45 38 34 29 28 29 32 33 35 34 36 38 41 42 45 48 52 62 74 78 74 70 67 65 60 60 54 54 52 51 51
42 39 39 40 39 41 43 47 42 42 47 49 40 39 44 40 41 42 39 31 32 30 31 32 34 35 36 36 40 43 46 49 49 46 48 50 56 67 80 78 73 71 69 62 61 57 54 54 54
30 35 38 35 44 40 39 36 36 45 46 42 32 33 39 41 45 42 32 30 29 32 33 33 33 35 38 41 43 47 52 55 52 53 53 53 54 57 61 73 76 75 74 69 63 62 59 57 55
35 41 33 34 35 36 37 37 42 41 40 38 35 33 37 38 40 39 32 29 29 32 34 33 36 37 40 46 49 54 54 55 56 59 58 60 56 57 60 60 61 69 73 71 68 63 64 65 60
31 27 37 37 31 39 40 43 47 43 40 42 40 43 41 36 37 34 35 33 33 34 35 39 41 44 48 52 56 59 58 58 56 59 63 62 63 60 55 59 62 59 63 72 71 65 67 68 65
35 31 32 35 40 41 41 47 45 46 42 41 41 43 39 32 35 34 34 33 37 38 38 41 45 53 57 61 64 69 68 63 62 61 61 63 61 65 67 61 63 62 62 62 67 67 67 69 68
34 41 37 38 35 46 50 44 46 46 49 51 47 42 37 35 36 37 33 36 38 40 45 49 53 58 63 69 72 77 73 72 68 68 66 55 51 64 67 65 65 60 60 63 62 63 64 68 71
21 34 41 41 43 45 47 47 54 48 53 49 50 34 35 37 35 35 36 38 40 46 52 57 59 64 71 76 83 86 80 78 80 78 74 71 66 64 69 63 62 60 60 57 62 65 64 65 73
22 24 31 36 43 51 50 51 49 45 45 39 34 33 34 35 36 36 36 40 43 50 55 55 62 68 76 83 87 89 82 75 73 74 80 86 88 76 70 62 60 61 56 55 58 57 61 64 71
23 23 24 33 36 43 41 42 34 39 37 33 32 33 33 34 37 38 40 45 51 57 56 55 64 74 81 88 88 79 67 62 62 66 74 85 90 88 78 65 63 52 57 57 50 55 62 64 67
24 24 24 25 33 36 36 38 31 36 34 32 32 33 33 34 35 40 46 51 54 54 57 63 71 80 90 86 72 64 60 54 61 65 71 80 90 88 80 66 63 62 47 48 50 50 58 62 63
25 26 25 28 27 35 35 37 28 31 35 34 33 32 34 33 33 39 44 47 46 51 57 64 72 79 86 72 55 51 47 47 57 62 70 83 90 90 80 69 68 65 53 49 52 53 50 53 59
28 29 27 27 26 32 36 41 31 28 32 35 34 32 33 31 35 38 40 40 46 51 57 66 73 83 77 56 43 37 33 38 49 61 71 77 88 90 82 78 66 65 53 50 60 60 53 54 54
35 31 29 30 26 27 33 39 37 31 33 35 34 33 32 32 34 38 37 39 47 52 60 67 74 84 71 51 36 25 26 29 42 59 59 66 83 86 85 81 71 60 56 62 58 56 51 52 51
39 36 27 31 30 23 27 37 39 32 33 34 34 33 31 35 33 36 38 41 48 55 62 70 77 80 61 44 33 23 19 27 45 54 64 62 69 83 92 85 78 70 63 60 54 54 52 46 46
44 42 35 30 29 30 24 35 40 32 35 34 34 31 32 33 34 38 38 41 49 53 62 69 77 71 50 36 30 22 18 25 35 51 57 65 65 81 88 96 93 77 73 68 64 59 50 43 47
55 50 40 35 31 32 34 23 43 34 34 34 34 31 33 35 37 37 37 40 47 53 60 66 73 59 41 32 25 19 17 22 28 41 54 66 71 75 83 90 92 88 79 71 68 55 53 49 48
55 48 47 42 34 36 36 26 41 35 33 34 34 31 32 35 37 38 36 38 46 52 57 62 67 49 34 30 24 19 19 20 25 34 45 63 74 73 80 88 84 92 87 79 72 69 58 53 52
56 53 52 49 36 39 37 31 33 36 35 34 33 31 32 33 35 36 35 36 43 49 54 59 63 46 32 31 25 21 14 11 14 21 32 47 71 75 83 83 83 82 86 78 71 60 56 53 49
65 62 52 47 44 39 38 37 37 33 36 38 36 33 33 32 32 34 34 35 39 45 50 55 58 45 34 34 30 25 15 11 9 11 17 28 66 74 83 82 72 74 75 74 61 62 57 53 51
63 63 59 53 47 40 44 42 40 33 32 37 37 34 34 32 31 34 33 33 34 40 45 50 53 45 31 32 32 28 24 15 10 10 10 20 53 76 82 80 74 70 67 71 74 68 60 54 52
59 62 59 55 45 45 45 43 44 41 35 33 34 34 34 33 31 33 31 29 31 36 38 45 49 44 31 27 29 26 24 19 7 4 9 13 38 71 68 77 80 75 77 64 69 70 61 61 59
61 57 58 59 53 47 46 47 48 47 41 35 30 31 33 32 30 31 26 26 29 33 33 39 44 43 34 23 24 24 22 23 19 8 0 15 30 60 68 76 81 81 77 81 74 66 64 66 68
67 63 68 63 56 48 48 47 51 50 47 42 36 27 30 30 29 29 24 25 26 31 31 33 38 42 37 27 18 19 20 18 23 20 6 7 22 50 69 68 74 85 83 79 73 64 71 70 67

GFSSGP_250_spd_153.txt.gz
Wind_Speed
61 61 59 56 54 51 48 50 51 50 47 46 44 46 45 40 41 41 39 41 37 38 40 41 42 45 50 55 60 59 62 63 62 61 61 61 59 56 55 52 49 45 40 40 40 39 38 36 35
64 64 62 51 55 51 46 47 47 47 47 41 43 45 42 42 39 42 43 40 40 41 41 44 47 49 50 56 57 62 65 68 66 64 64 64 61 61 58 54 52 50 46 42 42 43 40 40 40
65 57 58 49 60 54 50 50 52 50 45 44 44 43 45 44 44 43 43 42 41 43 46 50 51 49 45 44 52 60 65 66 68 70 68 66 65 62 59 58 53 50 51 48 44 44 44 42 42
61 62 62 40 48 41 42 50 54 54 48 50 40 48 49 44 43 43 46 44 44 48 49 50 52 48 46 47 48 52 59 63 67 65 67 69 67 66 64 60 58 56 53 49 49 47 47 47 45
57 64 63 63 53 40 43 46 55 50 46 39 41 46 49 41 42 47 45 46 47 48 49 52 49 44 41 41 42 45 51 57 64 66 66 71 70 71 70 67 64 60 56 54 51 52 49 48 48
40 45 49 50 54 53 54 53 49 47 47 44 43 49 45 44 44 43 46 47 45 46 48 47 42 39 34 33 34 37 39 42 48 59 67 69 72 72 72 74 68 68 62 56 54 52 53 51 51
34 35 36 41 46 47 48 54 54 52 52 45 44 48 46 44 47 43 44 43 41 44 46 45 35 30 31 30 30 31 31 34 35 38 43 48 54 63 70 75 76 72 71 64 60 57 55 56 55
26 29 30 36 36 37 46 51 44 40 44 44 44 49 50 44 46 43 40 42 43 44 45 37 32 32 33 32 31 31 32 33 37 39 42 44 46 48 54 57 64 70 75 72 68 62 57 59 59
31 37 38 34 35 37 38 39 38 38 42 40 47 46 49 50 37 32 37 41 41 43 40 34 33 34 32 32 33 33 34 37 40 44 47 49 50 51 51 52 54 55 64 75 74 70 62 63 62
34 33 32 33 29 31 32 45 41 35 38 37 36 38 49 41 34 36 37 36 40 42 38 35 34 35 34 36 36 35 37 41 44 47 50 52 56 56 57 55 53 54 53 60 71 71 68 68 66
21 35 34 30 34 32 29 36 33 28 37 32 40 43 40 41 42 45 47 40 39 38 37 36 36 39 40 40 41 42 45 47 48 51 54 58 61 62 63 63 60 58 53 54 58 70 73 73 73
19 20 24 30 30 33 38 37 35 38 33 47 44 42 39 42 43 45 47 44 39 40 38 37 41 43 44 45 48 50 51 54 60 64 66 68 68 68 70 68 64 65 60 62 54 58 68 76 76
22 20 19 23 36 34 31 37 35 34 39 39 41 43 47 50 48 48 45 42 41 39 39 42 44 45 48 52 57 59 65 66 69 72 76 78 78 79 75 75 73 68 65 59 58 59 63 71 77
24 21 22 17 20 35 43 43 47 46 49 52 45 48 48 49 44 42 42 43 36 38 39 44 46 49 56 61 64 67 70 69 75 80 83 84 87 80 77 73 75 74 72 67 61 59 63 65 74
30 23 24 21 20 21 28 40 45 47 50 49 53 53 53 52 46 42 40 38 39 40 43 46 53 57 62 66 67 69 74 78 84 87 92 94 90 86 82 76 67 74 69 66 60 59 60 66 70
34 30 23 24 25 21 24 24 33 40 45 47 43 43 42 41 41 38 34 36 38 43 46 50 54 60 60 62 68 75 81 89 93 91 85 78 80 82 80 87 83 75 74 64 61 61 61 65 68
35 38 31 27 26 25 25 25 28 34 40 39 40 38 38 36 37 35 34 36 39 43 49 51 50 53 57 63 74 81 90 92 81 75 67 64 67 71 77 84 82 68 74 69 61 60 62 64 65
42 41 38 34 28 25 27 28 23 31 35 37 34 34 35 35 33 33 35 35 38 38 39 44 50 56 63 74 80 87 92 76 66 62 54 54 57 62 73 83 84 73 72 65 58 54 59 62 65
48 44 41 41 31 29 29 31 26 25 31 35 33 32 36 34 33 34 35 36 38 37 43 47 53 60 67 73 80 86 68 57 55 52 47 46 50 37 68 84 92 82 72 64 55 51 55 56 53
51 46 45 40 34 32 30 33 31 26 28 35 36 33 33 32 33 34 35 36 36 37 41 47 53 62 65 72 81 68 60 43 38 32 38 42 62 66 72 82 90 89 72 62 52 51 53 56 54
53 46 49 42 38 32 31 38 35 28 25 29 36 34 34 32 34 34 35 36 39 40 41 47 55 60 66 75 71 63 48 30 16 22 30 43 59 65 72 71 86 80 76 63 58 48 44 50 52
48 52 46 41 40 36 31 40 39 31 28 30 30 34 32 35 34 34 36 36 39 40 45 48 54 60 66 74 64 56 38 18 9 19 32 45 50 59 61 65 73 76 72 70 66 54 54 52 46
52 55 50 44 40 38 38 34 47 34 32 31 30 30 32 33 32 33 35 36 39 40 43 47 52 61 66 70 61 49 30 13 5 25 46 40 35 38 42 61 71 73 76 69 64 57 53 55 49
58 55 52 45 42 38 43 34 49 40 35 31 32 30 32 33 32 33 34 36 39 37 41 43 51 60 64 65 48 35 21 11 5 14 46 54 47 42 48 53 73 77 75 70 60 63 57 57 47
62 59 56 54 46 41 43 38 48 44 39 34 30 32 33 34 32 33 32 36 37 35 37 41 50 56 61 57 41 28 21 14 8 8 30 49 56 51 47 50 77 79 76 68 60 65 60 56 47
65 65 63 55 49 46 45 40 47 46 42 39 33 30 34 35 33 32 33 35 36 31 34 38 46 52 57 53 36 27 25 22 12 4 9 32 48 55 53 50 78 81 76 67 71 65 63 52 52
65 64 64 60 51 48 46 45 51 47 44 43 37 32 33 36 35 33 33 33 34 28 31 36 42 48 53 48 36 22 25 24 19 11 3 13 29 48 61 55 71 84 79 73 71 68 59 52 57
67 69 66 61 53 50 52 50 54 48 46 45 42 34 30 33 34 32 32 29 31 26 29 34 38 43 49 45 35 23 20 24 18 17 10 4 21 27 53 60 52 86 83 76 73 65 61 65 62
74 73 68 64 57 53 55 54 56 52 48 47 45 42 33 29 31 31 29 27 28 26 27 30 33 38 43 42 37 26 18 22 23 20 14 3 9 22 46 62 55 70 86 74 78 71 67 66 67
80 77 75 69 59 57 55 56 57 54 51 49 48 44 41 31 27 28 27 25 27 26 25 27 28 32 37 39 35 30 22 19 22 23 16 3 3 12 38 61 55 59 70 68 70 72 70 66 74

GFSSGP_250_spd_159.txt.gz
Wind_Speed
56 55 58 56 54 54 52 51 50 49 46 45 41 39 38 39 39 40 41 39 36 37 39 39 36 37 35 32 34 35 36 39 42 48 52 54 58 58 58 57 55 53 52 51 51 46 44 42 40
49 52 50 51 50 50 51 52 51 54 50 48 47 48 45 41 42 39 41 40 38 37 37 39 38 37 39 36 36 35 39 40 42 46 54 55 57 62 62 60 60 57 52 49 53 52 50 46 44
43 47 44 46 47 48 49 49 50 51 51 51 50 50 48 46 44 43 42 42 42 40 40 42 38 40 38 36 38 38 41 41 42 45 49 54 63 61 61 64 64 61 60 51 50 50 51 50 48
39 44 47 50 55 49 49 51 48 45 44 51 49 51 50 44 41 43 41 41 41 41 47 44 41 38 39 37 38 41 41 43 44 45 48 49 54 65 66 64 64 61 62 59 56 54 52 52 50
31 36 44 52 55 56 54 55 55 56 50 50 44 48 50 42 42 45 45 42 41 43 46 43 41 37 37 38 38 37 40 43 45 46 46 47 50 55 57 63 66 66 63 60 59 56 58 54 54
26 33 40 49 54 56 60 60 61 60 60 57 52 48 48 50 49 45 41 46 42 44 48 43 39 39 39 35 35 36 40 41 42 43 43 41 40 43 47 49 55 64 65 59 58 59 61 58 56
21 17 31 40 45 52 55 57 59 60 55 52 57 56 58 55 49 43 39 42 42 45 48 43 41 43 37 31 35 39 43 42 41 39 34 36 36 36 39 39 41 47 53 59 60 60 55 58 62
17 18 18 20 35 42 45 48 49 51 55 56 63 59 62 55 52 47 48 47 49 48 44 44 42 43 32 33 36 41 42 41 39 34 34 32 30 33 34 33 34 39 41 45 50 59 59 60 61
17 18 21 21 22 27 36 40 40 39 38 44 65 66 58 56 56 49 50 47 55 50 44 46 45 34 33 35 37 38 39 39 37 38 36 35 35 33 35 36 37 37 37 39 40 42 46 53 62
21 19 17 20 21 22 27 34 35 31 29 34 41 49 60 61 50 48 48 45 45 49 47 48 40 37 37 40 40 41 39 41 42 41 39 37 37 36 36 37 38 39 39 36 36 37 41 47 50
25 24 20 18 19 22 23 25 36 34 31 26 35 36 41 37 45 45 46 43 39 42 45 48 42 40 42 46 48 43 42 43 46 43 41 39 41 41 38 40 40 42 42 36 42 38 40 38 42
27 26 28 23 20 20 22 23 23 30 30 26 33 36 40 37 40 42 44 41 40 40 39 41 43 45 47 44 42 44 45 47 49 48 47 47 47 47 47 44 46 49 51 51 53 54 54 50 46
33 30 29 27 26 22 20 20 23 22 28 32 28 37 39 43 37 35 40 44 39 37 46 45 45 44 45 45 47 48 48 48 49 52 52 53 56 57 57 58 58 61 62 62 64 64 61 59 57
37 31 33 33 29 32 22 21 22 18 24 33 34 33 40 42 41 42 38 41 37 48 45 47 49 49 49 51 50 49 47 48 51 54 56 59 62 64 65 66 67 70 72 69 70 73 67 63 63
47 45 40 36 36 35 31 32 24 22 24 23 34 38 37 42 48 51 43 43 48 52 49 48 47 50 50 49 49 48 47 49 52 55 59 62 64 66 67 68 71 73 76 78 79 79 71 69 70
53 54 48 37 37 40 35 39 26 26 25 21 20 22 36 44 42 42 45 46 46 46 47 46 48 49 49 49 48 45 48 52 55 59 62 61 62 68 71 73 75 78 78 81 82 81 78 77 76
55 58 59 51 47 45 36 41 36 29 30 25 22 21 23 32 45 51 47 46 47 48 46 46 47 47 46 47 45 45 47 48 51 55 60 64 69 75 76 76 78 80 83 86 88 87 83 85 88
53 56 62 62 57 49 43 41 42 33 34 28 25 24 22 23 28 35 39 41 43 44 44 43 43 43 45 42 44 45 48 52 56 60 63 67 73 78 83 84 85 85 87 85 84 84 79 61 64
56 59 65 68 63 57 50 46 44 39 35 34 29 28 26 25 24 30 33 36 38 38 38 39 40 43 42 43 44 48 50 56 59 62 67 71 79 82 75 72 72 74 75 69 66 64 54 30 53
60 59 63 69 70 59 54 46 50 46 37 36 33 31 28 27 26 25 30 36 35 37 38 39 40 41 42 43 45 46 52 58 61 65 70 79 73 57 51 50 51 53 50 45 45 52 60 72 62
68 62 63 67 69 66 54 45 51 51 44 38 37 35 31 28 27 26 27 34 36 36 38 39 40 41 40 41 42 46 52 56 64 69 74 73 55 44 38 38 37 38 43 42 43 46 60 68 64
72 70 62 65 66 67 60 46 53 54 49 40 43 40 34 32 28 28 26 29 34 36 37 38 36 38 39 39 40 46 50 58 65 70 72 58 53 45 36 27 28 31 36 38 37 50 68 63 62
75 72 66 62 67 64 57 48 55 61 54 45 44 43 40 35 29 29 29 27 30 34 36 36 35 35 36 37 41 44 49 57 64 66 63 56 49 41 27 16 10 17 27 32 38 59 67 59 56
76 72 67 63 64 62 54 50 50 64 52 47 47 45 42 38 32 31 31 28 29 32 34 35 34 33 34 36 39 43 48 55 59 58 53 53 46 38 30 15 9 17 21 27 48 58 62 54 50
73 69 65 64 59 57 56 56 52 59 54 51 52 49 47 41 37 32 32 29 28 32 32 32 32 32 33 34 39 41 46 51 54 52 47 41 39 36 33 20 14 14 27 14 28 62 58 44 43
68 64 62 60 52 55 58 59 58 55 54 51 53 53 51 44 41 36 35 32 27 28 30 31 31 31 31 33 37 39 43 48 50 48 43 36 34 34 33 27 18 20 25 18 17 60 53 49 43
61 63 54 60 58 55 59 62 58 56 52 49 51 52 52 49 44 39 36 33 29 27 30 31 32 30 30 32 34 35 39 45 46 45 40 36 31 33 30 27 26 17 21 24 23 63 50 54 49
56 62 59 61 59 58 61 65 60 56 57 51 49 51 51 50 45 42 36 34 31 26 27 29 29 30 30 30 31 32 36 42 43 43 38 36 29 25 24 20 21 26 20 23 34 67 66 60 53
61 63 61 66 66 65 63 68 61 56 57 55 52 53 55 53 48 46 42 37 32 26 25 26 27 30 29 26 27 29 32 39 43 41 36 33 27 20 20 16 19 25 24 24 46 61 63 61 59
65 68 68 70 67 68 69 72 67 59 57 56 56 54 56 56 52 48 44 39 34 26 23 24 25 29 27 24 24 27 30 36 40 39 36 33 26 19 15 15 20 26 23 26 51 62 57 58 55

GFSSGP_250_spd_162.txt.gz
Wind_Speed
54 54 57 58 59 60 55 52 51 52 51 50 52 51 51 49 48 45 45 43 43 43 43 43 44 43 43 42 41 37 35 38 37 41 43 46 48 50 53 55 57 57 56 53 52 48 50 48 46
49 49 47 46 47 51 52 52 50 50 49 49 51 53 51 48 46 46 43 42 42 42 39 39 38 37 33 35 33 36 37 37 41 42 42 46 48 49 53 56 58 59 60 57 56 54 51 50 50
40 37 41 37 42 47 45 47 51 46 45 45 46 48 50 49 51 49 44 43 41 40 38 40 40 40 38 38 36 39 37 40 40 42 45 46 48 53 55 56 59 60 61 62 60 58 54 50 50
25 32 36 42 41 52 48 47 47 48 46 46 45 45 45 46 45 46 49 44 44 46 44 41 38 42 43 40 37 39 40 41 43 43 42 43 44 47 49 57 58 63 61 62 59 62 58 58 52
18 23 30 36 44 47 50 52 56 51 48 50 49 43 44 46 47 48 46 45 44 45 46 47 42 42 47 42 41 39 39 41 41 38 38 40 43 47 49 51 55 58 62 65 61 58 58 62 58
4 13 22 30 35 42 51 52 57 61 59 56 61 58 54 53 50 51 48 48 48 49 48 46 43 42 45 45 41 44 44 41 36 37 40 42 44 45 46 45 47 51 54 54 58 61 63 60 58
3 6 6 11 28 39 43 51 54 55 59 62 64 60 64 61 59 59 55 53 53 50 48 45 44 42 46 49 43 45 41 34 38 38 40 43 43 41 41 43 40 43 46 47 50 51 59 63 58
10 7 6 11 10 14 31 42 50 57 61 64 64 64 62 60 54 56 57 58 53 50 46 43 41 46 47 48 47 47 36 35 35 36 38 40 41 38 38 37 36 36 36 37 42 43 44 48 54
22 18 13 12 12 13 15 19 35 41 46 53 59 61 61 61 58 60 60 59 58 52 52 48 49 49 47 47 47 41 38 36 36 38 40 39 39 39 39 37 37 37 37 36 37 38 39 41 45
23 26 27 20 17 14 18 18 20 26 36 41 40 44 48 49 54 66 59 57 57 57 56 55 51 55 53 49 51 40 38 39 39 42 42 43 43 43 43 45 42 40 38 37 37 38 37 37 38
26 24 29 29 27 22 18 19 21 21 23 33 37 36 37 40 43 46 53 61 60 50 53 50 52 47 44 48 50 42 41 46 46 47 45 45 45 44 45 46 45 40 39 38 39 38 41 43 40
34 32 28 29 32 28 23 18 22 20 20 22 31 41 36 38 38 41 43 43 52 54 50 48 47 45 52 53 49 45 46 47 42 43 49 50 49 47 48 46 46 47 48 45 43 41 41 42 38
38 39 38 33 31 33 33 27 25 15 23 23 23 30 32 31 40 41 41 43 41 43 44 46 46 47 46 48 48 48 48 48 49 50 53 53 54 55 55 53 55 55 55 56 53 51 52 50 51
43 37 44 42 35 33 38 39 34 18 27 23 24 24 32 36 34 41 44 45 40 37 40 42 45 46 45 52 55 53 55 53 51 52 52 54 55 55 57 60 60 60 60 62 64 61 61 58 59
41 40 44 41 46 43 44 46 40 34 29 24 25 25 25 38 37 39 41 44 46 45 42 41 47 41 52 51 53 55 55 52 51 52 53 52 53 55 56 58 62 64 65 67 67 71 74 72 70
45 41 42 48 47 52 51 51 46 38 34 31 27 26 28 25 31 44 44 43 46 46 47 44 48 52 54 56 54 52 49 53 50 50 51 51 52 54 57 59 61 61 60 64 67 71 74 76 78
53 47 47 46 52 54 55 55 53 46 40 38 34 30 29 29 24 24 37 48 49 49 45 49 52 52 52 52 50 50 49 49 48 49 51 53 56 57 59 61 65 68 69 73 76 78 77 77 75
62 51 51 50 50 52 58 64 59 53 46 44 41 36 32 30 26 26 24 29 42 51 55 52 48 46 47 47 48 45 46 47 48 50 52 54 56 61 65 71 73 75 76 84 86 87 86 83 78
70 63 55 57 55 51 56 60 62 62 53 49 46 38 37 36 31 30 27 26 30 36 41 43 41 43 45 43 41 41 44 46 48 50 53 57 60 64 69 72 76 83 82 84 86 86 84 82 80
79 73 65 63 64 58 54 57 60 63 61 54 50 45 40 39 37 33 29 28 28 28 34 37 36 38 38 38 40 42 43 44 47 50 55 59 62 64 67 72 77 74 71 71 71 73 72 71 67
90 82 77 69 66 65 55 58 56 60 67 61 52 49 44 42 40 36 33 31 28 28 33 37 37 35 37 38 39 42 42 44 46 51 55 59 63 64 70 64 57 52 47 46 50 54 51 51 50
95 91 83 77 71 67 64 59 58 62 62 65 54 50 47 45 43 39 37 34 30 29 30 32 35 35 34 36 38 39 40 42 47 50 53 60 62 65 65 51 40 32 27 28 36 39 40 43 54
96 92 87 80 73 69 64 63 59 63 64 64 57 52 48 47 47 42 39 37 33 30 28 30 32 33 34 35 37 37 38 41 44 47 52 57 60 60 56 45 29 19 8 15 31 30 32 45 58
95 90 85 80 74 64 67 65 60 61 67 66 61 54 50 48 51 47 41 40 35 32 28 27 29 32 33 33 35 34 36 38 42 47 51 56 57 53 50 45 25 14 8 10 19 25 32 51 64
90 84 79 74 69 62 64 63 59 61 70 64 61 56 55 52 53 51 47 41 37 33 30 26 26 29 31 32 32 32 33 36 42 45 49 55 52 47 46 40 27 13 9 10 22 26 28 50 68
87 81 72 70 63 61 60 59 62 60 71 60 62 57 56 55 55 53 50 44 38 34 33 26 25 27 29 29 31 33 31 37 40 42 50 51 49 45 42 38 23 14 14 16 22 19 30 57 54
81 72 69 62 55 55 55 56 62 63 73 65 61 57 54 54 54 54 51 46 40 36 35 31 25 25 26 28 30 29 33 34 36 40 46 47 47 43 39 32 22 16 23 15 14 17 41 61 51
78 73 62 55 54 52 51 53 60 64 76 66 55 59 53 51 52 51 51 47 42 38 35 32 26 23 24 26 26 27 31 31 32 37 41 43 44 41 37 27 17 18 28 23 19 16 41 55 53
72 70 59 54 52 49 51 53 63 71 77 61 60 61 53 49 48 49 50 48 43 39 35 31 27 23 23 22 23 26 27 28 28 34 38 41 42 38 30 24 15 17 31 27 21 17 29 58 50
68 68 63 56 49 50 56 60 72 76 73 65 58 58 54 51 47 45 46 46 42 39 35 30 26 24 22 21 23 24 25 25 25 31 36 39 41 37 28 18 12 19 31 25 21 21 29 57 53

GFSSGP_250_spd_165.txt.gz
Wind_Speed
60 60 59 61 62 62 64 60 58 57 53 52 52 53 54 54 53 51 52 49 48 48 48 50 51 51 50 50 49 49 48 47 50 47 47 46 45 46 50 51 51 54 54 54 55 55 54 54 53
43 49 52 52 58 60 61 61 58 58 56 55 56 56 55 54 55 53 53 52 51 51 51 50 50 50 50 50 50 48 47 47 46 46 44 43 45 43 49 50 53 55 54 56 58 59 59 59 57
36 42 43 40 42 52 55 57 52 54 57 56 53 52 53 55 55 55 55 54 53 49 50 51 48 47 46 47 44 44 41 42 42 44 43 45 46 51 49 52 52 53 55 58 59 60 60 61 60
18 25 39 41 44 40 51 42 45 45 48 54 51 50 49 51 54 55 53 53 50 53 53 49 48 49 48 46 43 41 47 44 44 44 45 45 48 52 54 56 56 55 57 60 63 62 63 62 62
10 20 26 32 34 36 42 54 57 53 52 50 52 54 49 48 48 48 48 48 48 48 50 47 46 50 49 49 48 44 50 49 45 43 45 46 47 48 46 47 49 53 56 58 61 63 61 62 62
10 10 17 27 31 36 40 42 50 53 54 56 58 58 53 53 54 51 47 50 48 51 45 49 49 50 52 53 49 46 50 52 46 47 47 47 46 43 45 46 47 51 52 57 59 55 57 55 59
8 11 10 10 16 29 38 42 44 52 58 60 62 63 65 60 61 58 59 62 60 58 54 53 53 57 59 52 48 45 49 47 49 48 47 44 40 42 43 45 46 48 49 48 52 47 47 46 51
17 16 15 14 16 16 15 21 34 44 52 57 61 60 59 61 66 64 65 68 64 61 57 62 62 55 52 50 47 45 49 50 49 50 46 39 39 39 41 42 42 41 42 41 43 42 39 41 44
27 23 23 20 19 21 23 22 23 24 32 47 56 57 62 60 61 68 70 67 71 72 65 62 61 58 53 49 46 45 47 50 47 49 45 40 41 42 41 40 40 41 42 40 39 38 38 37 38
36 34 30 28 27 26 25 26 29 24 23 23 30 43 51 56 60 66 73 71 70 65 63 65 64 60 54 57 53 52 53 56 53 52 47 44 42 44 41 41 40 45 47 44 41 41 41 40 39
38 36 38 34 34 34 33 28 31 31 28 24 27 28 40 47 45 46 49 52 56 59 62 58 62 59 53 57 58 54 57 53 54 52 46 44 46 46 44 45 46 46 50 47 48 44 41 42 41
37 32 37 40 39 38 39 40 34 32 28 28 35 27 29 36 44 39 42 44 45 43 52 59 56 53 47 53 53 54 52 46 50 54 47 47 47 44 46 47 49 51 50 50 50 53 49 47 43
44 45 44 44 43 43 46 45 43 43 31 33 37 29 28 28 32 36 41 42 46 48 52 43 44 50 53 56 58 51 52 51 52 50 50 50 50 54 51 53 53 53 54 56 55 52 53 55 52
44 40 45 50 46 47 48 47 47 48 41 40 38 35 36 31 29 34 34 36 41 39 41 43 42 44 47 49 52 52 55 53 50 53 54 54 60 59 55 54 55 56 58 59 60 60 61 63 60
56 53 52 44 50 53 55 56 55 55 51 49 45 40 36 33 29 29 33 37 37 39 44 43 49 47 45 48 49 50 52 52 53 58 57 55 59 55 56 55 57 59 58 57 58 57 64 65 66
69 65 55 54 52 47 50 56 58 58 56 53 48 45 39 36 32 29 29 30 40 39 40 42 45 49 50 49 50 51 52 52 55 56 55 59 56 56 56 55 55 55 55 56 58 62 67 70 73
76 75 68 61 57 57 51 52 57 61 60 60 53 51 50 42 38 32 31 29 29 42 44 47 46 49 53 52 51 51 57 60 57 60 57 56 56 55 53 54 53 56 58 60 62 66 71 72 73
86 83 75 71 67 61 59 53 57 62 63 63 61 56 52 50 43 38 35 32 29 28 37 47 46 49 53 54 54 55 58 59 58 53 52 50 51 51 54 54 56 59 62 66 70 75 79 80 80
93 93 87 76 75 66 66 64 58 59 62 61 66 58 55 53 48 42 41 34 33 30 28 29 35 44 51 56 58 54 54 51 48 45 45 47 49 51 53 56 59 65 70 77 78 80 83 87 88
98 100 88 81 80 75 74 74 66 64 64 65 63 66 53 54 52 44 45 38 37 35 31 28 29 33 39 43 44 44 42 42 41 41 43 47 48 49 52 56 61 67 73 77 82 80 76 80 85
107 104 93 87 88 81 79 76 76 72 66 69 66 64 58 56 53 51 47 44 40 38 36 33 31 30 34 37 40 37 38 40 38 40 42 45 47 50 54 57 60 67 71 72 72 64 61 64 69
103 98 91 89 89 85 85 77 79 77 75 70 69 66 61 56 55 54 51 48 44 41 40 38 32 30 31 33 35 35 36 35 36 39 42 45 48 50 53 56 60 66 64 60 55 48 48 52 53
92 89 85 86 89 90 86 83 74 75 73 73 66 65 66 56 59 56 55 49 47 45 42 39 34 31 30 30 31 33 33 34 36 38 42 44 47 48 52 56 61 62 52 47 38 28 36 38 37
89 84 84 84 82 77 80 84 68 69 67 73 70 62 66 59 61 61 55 50 49 48 44 40 36 33 31 29 29 31 32 33 35 37 41 43 44 49 51 56 59 56 48 37 26 17 22 20 24
85 80 79 75 74 65 77 72 59 66 63 70 70 63 66 64 62 64 58 54 51 50 46 41 36 34 31 27 27 28 30 32 34 37 39 39 44 48 51 55 55 51 44 30 22 15 16 19 23
82 80 77 73 70 65 64 53 56 57 60 64 67 62 65 65 63 67 62 56 52 51 47 42 37 35 31 27 25 28 31 32 33 36 34 39 42 47 52 54 52 44 35 25 18 13 13 22 21
73 78 71 75 59 56 50 46 53 53 57 60 61 61 65 63 63 68 64 58 53 51 48 44 39 35 33 28 24 28 31 29 31 30 33 39 41 47 53 54 49 36 29 26 24 18 15 17 22
76 76 75 66 54 53 47 49 49 47 55 56 59 59 62 62 62 68 64 57 53 51 48 44 42 35 32 27 24 27 27 26 28 29 34 38 40 47 53 53 45 33 28 26 28 21 15 19 23
76 75 73 65 51 50 43 46 49 49 55 59 61 61 63 64 63 63 60 55 53 47 47 45 42 36 31 27 25 24 24 24 26 28 32 36 40 47 53 47 34 26 25 25 32 24 14 14 26
78 73 70 69 49 46 48 47 47 48 57 60 63 65 64 67 64 60 53 53 45 43 43 44 42 36 30 27 25 21 22 22 25 27 31 34 38 44 43 35 26 16 18 21 32 25 10 18 27

GFSSGP_250_spd_171.txt.gz
Wind_Speed
20 36 36 40 43 45 45 52 56 59 56 55 53 52 51 51 50 48 49 49 49 49 50 50 49 47 45 46 46 48 49 50 51 50 51 51 54 53 52 51 51 50 52 52 53 54 52 53 52
11 17 35 42 38 37 41 50 56 57 58 57 58 54 53 55 57 53 51 53 52 53 54 56 55 53 52 52 52 52 51 55 56 54 52 56 58 55 53 53 55 54 55 54 56 54 52 52 56
26 8 25 37 43 40 39 45 53 55 55 56 58 57 55 58 60 57 55 55 56 54 57 58 60 57 56 56 58 57 57 57 57 56 54 53 55 55 54 55 52 51 50 52 53 54 57 56 56
29 26 13 17 32 39 38 42 46 53 56 57 57 58 57 59 64 61 60 59 61 60 59 60 61 62 60 60 61 58 55 53 53 56 55 57 55 52 48 47 51 47 49 50 54 57 58 60 61
25 22 21 15 12 25 34 39 44 46 52 55 56 58 58 60 62 64 62 62 63 63 62 64 65 64 61 56 55 54 53 55 53 52 53 52 49 48 47 46 52 50 48 51 51 54 59 61 63
17 18 19 19 20 16 22 33 39 42 45 49 54 54 59 61 63 66 65 63 59 61 59 55 57 58 57 56 56 55 57 57 53 49 48 49 49 52 51 50 45 48 46 50 50 49 51 54 58
23 18 18 15 16 20 22 22 30 39 42 43 46 45 47 56 59 58 57 55 57 66 68 63 63 58 57 58 58 58 59 55 52 52 52 53 52 49 51 49 46 40 47 46 48 47 46 47 50
19 23 23 23 23 20 22 25 28 30 30 33 38 42 53 58 59 62 65 66 65 65 64 60 65 63 59 56 55 54 55 58 62 58 55 54 55 53 52 51 47 47 45 47 46 46 47 47 42
19 15 25 27 29 28 29 27 27 28 35 35 32 29 32 40 45 51 59 65 68 71 74 75 73 69 68 67 68 64 62 63 61 62 60 55 58 55 52 46 48 47 46 53 51 48 44 45 41
20 20 21 24 30 33 30 35 34 35 32 33 37 37 38 41 37 36 36 38 45 60 74 72 72 75 70 70 71 71 66 70 63 63 60 60 57 52 52 53 51 52 56 54 50 46 47 43 43
33 34 29 21 28 33 31 39 39 38 45 39 41 41 40 43 40 41 37 37 37 35 36 52 67 78 79 78 69 75 75 75 70 66 65 61 55 54 52 55 58 52 47 47 52 48 47 43 42
39 30 25 29 29 27 31 37 37 41 48 48 47 49 46 46 45 43 42 39 39 39 37 37 41 49 51 59 66 71 71 71 70 65 65 51 50 51 50 49 46 46 43 44 47 47 46 48 47
40 41 43 40 35 34 33 31 34 43 50 52 49 48 53 51 50 46 42 42 42 42 40 37 40 39 43 43 46 49 52 58 64 69 58 61 61 56 55 56 55 56 52 58 59 55 53 55 58
44 44 48 48 51 41 39 42 39 50 44 43 45 55 46 51 55 51 46 44 41 43 43 41 36 38 41 43 42 44 35 34 40 41 49 51 54 58 60 56 58 54 52 64 62 63 63 62 60
53 53 61 58 51 50 48 43 50 52 49 49 51 48 44 49 55 57 58 51 46 46 46 44 40 36 37 37 38 40 41 43 40 40 44 48 55 56 57 54 57 59 62 59 61 59 57 57 65
62 62 62 68 66 59 55 49 60 55 54 55 56 57 55 48 51 59 63 62 52 50 46 46 43 37 35 41 39 39 41 43 47 43 48 50 51 55 54 52 50 54 58 60 62 61 60 64 68
73 67 71 70 74 71 65 57 61 63 61 60 60 60 61 63 57 52 57 59 59 48 47 47 44 38 35 37 37 39 40 42 44 50 51 53 57 55 54 54 57 56 60 59 59 63 64 68 73
82 81 77 77 83 79 74 69 66 71 67 67 70 69 66 67 71 64 55 58 61 55 48 49 46 41 36 37 33 37 42 39 40 43 45 48 55 62 62 60 59 58 61 66 69 71 71 69 69
90 86 87 89 92 90 86 80 79 74 77 80 72 74 77 69 73 70 66 60 59 57 54 51 51 45 42 36 34 31 33 41 45 46 48 50 53 57 57 56 55 57 58 58 62 62 62 64 66
97 98 99 97 100 104 97 83 79 77 76 80 83 78 77 78 77 77 75 66 61 60 59 54 53 48 47 39 36 34 30 32 39 43 45 45 47 48 46 46 44 44 48 51 53 57 59 59 63
103 107 107 106 104 101 98 84 85 83 81 79 82 82 83 81 79 78 77 70 64 61 59 59 53 50 49 44 40 36 34 33 34 35 37 37 42 42 41 43 43 45 47 50 52 53 54 58 62
106 111 112 109 102 94 97 88 82 79 77 76 77 79 80 81 82 79 73 67 68 67 61 58 55 53 51 49 44 40 37 36 35 35 36 37 38 38 39 42 44 46 47 48 50 53 55 60 62
109 112 109 102 97 91 86 90 71 76 70 68 71 68 72 75 75 72 64 62 67 64 62 55 57 54 53 50 46 42 40 39 38 36 35 36 36 37 38 40 42 44 45 46 50 54 59 63 67
111 108 100 94 89 80 72 85 64 61 60 59 60 61 65 70 72 68 60 63 64 66 65 58 56 53 55 50 47 44 42 41 38 37 36 34 35 36 38 39 42 44 43 45 52 56 60 65 70
108 103 97 91 83 71 70 78 57 61 57 60 58 57 60 64 65 63 62 66 65 66 67 60 57 54 55 50 48 45 43 42 39 38 36 33 33 36 39 39 39 39 42 48 53 58 64 66 65
103 98 94 90 77 74 71 62 52 57 58 57 60 55 58 63 64 67 69 71 70 66 68 63 57 54 57 53 48 46 43 41 40 38 34 32 33 36 38 35 36 40 47 53 56 61 62 61 54
91 90 90 91 77 73 63 56 48 53 56 53 53 56 61 65 69 74 76 76 70 64 64 60 54 54 56 55 49 44 42 41 42 38 35 33 34 36 35 33 37 44 49 54 58 60 59 57 43
94 88 85 86 75 68 63 52 55 45 52 48 51 52 56 65 66 75 73 66 64 63 62 57 53 54 57 55 49 43 40 40 41 38 34 33 33 35 31 33 40 45 50 52 53 52 47 38 26
87 89 84 74 73 64 54 55 48 44 50 48 46 50 59 65 62 65 69 68 64 61 59 57 51 51 57 55 47 41 40 37 37 37 31 32 31 31 28 35 40 43 48 48 44 36 27 19 17
76 77 82 79 66 60 52 49 48 45 49 49 41 49 53 55 56 59 62 64 63 58 57 54 48 51 55 53 45 40 38 35 35 34 29 30 29 25 29 34 38 42 42 37 32 24 12 9 9